User: anonymous   Login
Location: ?astrovice
(49.6513°N, 14.9287°E)
Time: 09:45:55
(UTC+00:00)
Language:

Terra - Orbit

View from above orbital plane
View from above orbital plane
View from above satellite
View from above satellite

Ground track
Ground track

The orbit data is extracted from the following two-line orbital elements,

1 25994U 99068A   21168.15879993  .00000067  00000-0  24830-4 0  9994
2 25994  98.1757 242.5879 0001393  90.5087 330.2155 14.57127417143422
Epoch (UTC): 17 June 2021 03:48:40
Eccentricity: 0.0001393
inclination: 98.1757°
perigee height: 701 km
apogee height: 703 km
right ascension of ascending node: 242.5879°
argument of perigee: 90.5087°
revolutions per day: 14.57127417
mean anomaly at epoch: 330.2155°
orbit number at epoch: 14342

The dashed part of the orbit path shows where the satellite is in the earth's shadow,  

DLR